Location: Esp�n
(42.4593°N, 0.2047°W)
Time: 18:17:17
(UTC+00:00)

ISS - Visible Passes

Search period start: 24 July 2021 00:00
Search period end: 03 August 2021 00:00
Orbit: 419 x 421 km, 51.6° (Epoch: 24 July)

Date Brightness Start Highest point End Pass type
(mag) Time Alt. Az. Time Alt. Az. Time Alt. Az.
24 Jul -1.0 20:18:04 10° NW 20:20:23 17° N 20:22:42 10° NE visible
24 Jul -2.1 21:54:58 10° NW 21:57:59 29° NNE 21:58:48 26° NE visible
24 Jul -0.6 23:31:40 10° WNW 23:31:44 11° WNW 23:31:44 11° WNW visible
25 Jul -1.7 21:07:44 10° NW 21:10:31 23° NNE 21:12:58 12° ENE visible
25 Jul -1.7 22:44:17 10° WNW 22:45:54 26° WNW 22:45:54 26° WNW visible
26 Jul -1.4 20:20:26 10° NW 20:23:00 20° NNE 20:25:34 10° ENE visible
26 Jul -3.3 21:56:59 10° NW 22:00:06 57° N 22:00:06 57° N visible
27 Jul -2.7 21:09:43 10° NW 21:12:57 40° NNE 21:14:20 26° ENE visible
27 Jul -0.9 22:46:42 10° WNW 22:47:17 14° W 22:47:17 14° W visible
28 Jul -2.2 20:22:28 10° NW 20:25:30 29° NNE 20:28:30 10° E visible
28 Jul -2.6 21:59:09 10° WNW 22:01:33 37° W 22:01:33 37° W visible
29 Jul -3.9 21:11:45 10° WNW 21:15:08 85° SW 21:15:51 53° SE visible
30 Jul -3.5 20:24:25 10° NW 20:27:47 60° NNE 20:30:11 17° ESE visible
30 Jul -1.3 22:01:56 10° W 22:03:09 15° WSW 22:03:09 15° WSW visible
31 Jul -2.5 21:14:06 10° WNW 21:17:05 29° SW 21:17:32 28° SSW visible
01 Aug -3.2 20:26:32 10° WNW 20:29:49 49° SW 20:31:59 19° SSE visible
02 Aug -1.0 21:18:12 10° WSW 21:18:46 10° SW 21:19:21 10° SW visible
